When you browse on this site, cookies collect data to enhance your experience and personalize the content and advertising you see.
Visit our Privacy Policy to learn more. By continuing to use the site, you agree to this use of cookies and data.
  • In United Kingdom
  • List of Countries
  • For 7 days
  • Water Temperature
  • Weather Map
  • Weather Widgets
  • user-avatar
    Login

    Hourly Weather Varna

    Today, 19 January, Sunday

    Time Temperature Precipitation Wind Pressure Humidity
    00:00 +1°C° 0 mm 4 mps 753 mmHg 79%
    01:00 +2°C° 0 mm 3 mps 753 mmHg 79%
    02:00 +2°C° 0 mm 3 mps 753 mmHg 79%
    03:00 +2°C° 0 mm 3 mps 753 mmHg 79%
    04:00 +2°C° 0 mm 3 mps 753 mmHg 78%
    05:00 +1°C° 0 mm 3 mps 753 mmHg 78%
    06:00 0°C° 0 mm 4 mps 753 mmHg 79%
    07:00 0°C° 0 mm 4 mps 753 mmHg 79%
    08:00 0°C° 0 mm 4 mps 753 mmHg 80%
    09:00 +1°C° 0 mm 4 mps 753 mmHg 77%
    10:00 +1°C° 0 mm 4 mps 753 mmHg 75%
    11:00 +1°C° 0 mm 5 mps 753 mmHg 73%
    12:00 +1°C° 0 mm 5 mps 753 mmHg 73%
    13:00 +1°C° 0 mm 5 mps 753 mmHg 73%
    14:00 +1°C° 0 mm 6 mps 753 mmHg 74%
    15:00 +1°C° 0 mm 6 mps 754 mmHg 77%
    16:00 -1°C° 0 mm 6 mps 754 mmHg 80%
    17:00 -1°C° 0 mm 6 mps 754 mmHg 83%
    18:00 -1°C° 0 mm 6 mps 755 mmHg 83%
    19:00 -1°C° 0 mm 6 mps 755 mmHg 84%
    20:00 -1°C° 0 mm 6 mps 756 mmHg 84%
    21:00 -2°C° 0 mm 6 mps 756 mmHg 84%
    22:00 -2°C° 0 mm 6 mps 756 mmHg 84%
    23:00 -2°C° 0 mm 6 mps 757 mmHg 85%

    Tomorrow, 20 January, Monday

    Time Temperature Precipitation Wind Pressure Humidity
    00:00 -2°C° 0 mm 6 mps 757 mmHg 83%
    01:00 -2°C° 0 mm 6 mps 758 mmHg 82%
    02:00 -2°C° 0 mm 7 mps 758 mmHg 81%
    03:00 -2°C° 0 mm 7 mps 758 mmHg 80%
    04:00 -3°C° 0 mm 7 mps 758 mmHg 80%
    05:00 -3°C° 0 mm 7 mps 759 mmHg 79%
    06:00 -4°C° 0 mm 7 mps 759 mmHg 80%
    07:00 -4°C° 0 mm 7 mps 760 mmHg 80%
    08:00 -4°C° 0 mm 7 mps 760 mmHg 81%
    09:00 -3°C° 0 mm 7 mps 761 mmHg 76%
    10:00 -2°C° 0 mm 7 mps 761 mmHg 71%
    11:00 -2°C° 0 mm 7 mps 762 mmHg 65%
    12:00 -1°C° 0 mm 7 mps 762 mmHg 64%
    13:00 -1°C° 0 mm 6 mps 762 mmHg 62%
    14:00 -1°C° 0 mm 6 mps 763 mmHg 60%
    15:00 -1°C° 0 mm 6 mps 763 mmHg 63%
    16:00 -2°C° 0 mm 6 mps 763 mmHg 67%
    17:00 -1°C° 0 mm 5 mps 763 mmHg 70%
    18:00 -2°C° 0 mm 5 mps 763 mmHg 73%
    19:00 -2°C° 0 mm 5 mps 764 mmHg 76%
    20:00 -2°C° 0 mm 5 mps 764 mmHg 80%
    21:00 -2°C° 0 mm 5 mps 764 mmHg 79%
    22:00 -2°C° 0 mm 5 mps 765 mmHg 78%
    23:00 -3°C° 0 mm 6 mps 765 mmHg 77%

    Day after tomorrow, 21 January, Tuesday

    Time Temperature Precipitation Wind Pressure Humidity
    00:00 -3°C° 0 mm 6 mps 765 mmHg 78%
    01:00 -3°C° 0 mm 6 mps 764 mmHg 78%
    02:00 -3°C° 0 mm 6 mps 764 mmHg 79%
    03:00 -3°C° 0 mm 6 mps 764 mmHg 79%
    04:00 -4°C° 0 mm 6 mps 764 mmHg 80%
    05:00 -4°C° 0 mm 6 mps 764 mmHg 80%
    06:00 -4°C° 0 mm 6 mps 764 mmHg 81%
    07:00 -4°C° 0 mm 5 mps 764 mmHg 82%
    08:00 -4°C° 0 mm 5 mps 764 mmHg 83%
    09:00 -1°C° 0 mm 5 mps 764 mmHg 75%
    10:00 0°C° 0 mm 5 mps 764 mmHg 66%
    11:00 +2°C° 0 mm 6 mps 764 mmHg 58%
    12:00 +3°C° 0 mm 5 mps 764 mmHg 56%
    13:00 +3°C° 0 mm 5 mps 763 mmHg 54%
    14:00 +5°C° 0 mm 5 mps 763 mmHg 53%
    15:00 +4°C° 0 mm 4 mps 762 mmHg 57%
    16:00 +3°C° 0 mm 4 mps 762 mmHg 61%
    17:00 +2°C° 0 mm 3 mps 761 mmHg 65%
    18:00 +1°C° 0 mm 3 mps 761 mmHg 68%
    19:00 +1°C° 0 mm 3 mps 761 mmHg 70%
    20:00 0°C° 0 mm 3 mps 761 mmHg 73%
    21:00 0°C° 0 mm 3 mps 761 mmHg 73%
    22:00 -1°C° 0 mm 3 mps 760 mmHg 73%
    23:00 -2°C° 0 mm 4 mps 760 mmHg 73%

    22 January, Wednesday

    Time Temperature Precipitation Wind Pressure Humidity
    00:00 -1°C° 0 mm 3 mps 760 mmHg 73%
    01:00 -1°C° 0 mm 3 mps 759 mmHg 73%
    02:00 -1°C° 0 mm 3 mps 759 mmHg 73%
    03:00 -1°C° 0 mm 3 mps 759 mmHg 73%
    04:00 -1°C° 0 mm 3 mps 758 mmHg 74%
    05:00 -1°C° 0 mm 3 mps 758 mmHg 74%
    06:00 -1°C° 0 mm 3 mps 758 mmHg 73%
    07:00 -1°C° 0 mm 3 mps 758 mmHg 72%
    08:00 -1°C° 0 mm 3 mps 757 mmHg 72%
    09:00 +1°C° 0 mm 3 mps 757 mmHg 64%
    10:00 +2°C° 0 mm 3 mps 757 mmHg 57%
    11:00 +4°C° 0 mm 3 mps 757 mmHg 50%
    12:00 +5°C° 0 mm 3 mps 756 mmHg 47%
    13:00 +7°C° 0 mm 3 mps 756 mmHg 45%
    14:00 +8°C° 0 mm 3 mps 755 mmHg 42%
    15:00 +7°C° 0 mm 3 mps 754 mmHg 45%
    16:00 +5°C° 0 mm 3 mps 753 mmHg 48%
    17:00 +4°C° 0 mm 3 mps 753 mmHg 51%
    18:00 +3°C° 0 mm 3 mps 752 mmHg 52%
    19:00 +3°C° 0 mm 3 mps 752 mmHg 52%
    20:00 +2°C° 0 mm 3 mps 751 mmHg 52%
    21:00 +2°C° 0 mm 3 mps 751 mmHg 51%
    22:00 +1°C° 0 mm 4 mps 751 mmHg 51%
    23:00 +1°C° 0 mm 4 mps 750 mmHg 50%

    23 January, Thursday

    Time Temperature Precipitation Wind Pressure Humidity
    00:00 0°C° 0 mm 4 mps 750 mmHg 51%
    01:00 0°C° 0 mm 5 mps 750 mmHg 52%
    02:00 -1°C° 0 mm 6 mps 750 mmHg 53%
    03:00 -1°C° 0 mm 5 mps 750 mmHg 57%
    04:00 -2°C° 0 mm 5 mps 750 mmHg 61%
    05:00 -2°C° 0 mm 4 mps 750 mmHg 64%
    06:00 -2°C° 0 mm 4 mps 751 mmHg 65%
    07:00 -2°C° 0 mm 4 mps 751 mmHg 66%
    08:00 -2°C° 0 mm 4 mps 752 mmHg 67%
    09:00 -1°C° 0 mm 5 mps 753 mmHg 60%
    10:00 +1°C° 0 mm 6 mps 753 mmHg 54%
    11:00 +3°C° 0 mm 6 mps 754 mmHg 48%
    12:00 +2°C° 0 mm 8 mps 754 mmHg 45%
    13:00 +2°C° 0 mm 9 mps 754 mmHg 42%
    14:00 +2°C° 0 mm 11 mps 755 mmHg 39%
    15:00 +1°C° 0 mm 9 mps 755 mmHg 41%
    16:00 +1°C° 0 mm 8 mps 756 mmHg 44%
    17:00 +1°C° 0 mm 6 mps 756 mmHg 46%
    18:00 -1°C° 0 mm 7 mps 757 mmHg 51%
    19:00 -2°C° 0 mm 7 mps 757 mmHg 55%
    20:00 -2°C° 0 mm 7 mps 758 mmHg 59%
    21:00 -3°C° 0 mm 7 mps 758 mmHg 62%
    22:00 -3°C° 0 mm 7 mps 759 mmHg 65%
    23:00 -4°C° 0 mm 7 mps 760 mmHg 68%

    24 January, Friday

    Time Temperature Precipitation Wind Pressure Humidity
    00:00 -4°C° 0 mm 6 mps 760 mmHg 69%
    01:00 -4°C° 0 mm 6 mps 760 mmHg 70%
    02:00 -4°C° 0 mm 6 mps 760 mmHg 71%
    03:00 -5°C° 0 mm 5 mps 760 mmHg 72%
    04:00 -5°C° 0 mm 5 mps 760 mmHg 73%
    05:00 -4°C° 0 mm 4 mps 760 mmHg 73%
    06:00 -4°C° 0 mm 4 mps 760 mmHg 74%
    07:00 -5°C° 0 mm 3 mps 761 mmHg 74%
    08:00 -5°C° 0 mm 3 mps 761 mmHg 75%
    09:00 -2°C° 0 mm 3 mps 761 mmHg 66%
    10:00 0°C° 0 mm 3 mps 761 mmHg 57%
    11:00 +1°C° 0 mm 3 mps 761 mmHg 48%
    12:00 +3°C° 0 mm 2 mps 761 mmHg 45%
    13:00 +4°C° 0 mm 2 mps 760 mmHg 43%
    14:00 +5°C° 0 mm 1 mps 760 mmHg 41%
    15:00 +4°C° 0 mm 1 mps 760 mmHg 46%
    16:00 +3°C° 0 mm 1 mps 760 mmHg 50%
    17:00 +2°C° 0 mm 1 mps 760 mmHg 54%
    18:00 +2°C° 0 mm 1 mps 759 mmHg 57%
    19:00 -1°C° 0 mm 2 mps 759 mmHg 59%
    20:00 -1°C° 0 mm 2 mps 759 mmHg 61%
    21:00 -1°C° 0 mm 2 mps 759 mmHg 62%
    22:00 -1°C° 0 mm 2 mps 759 mmHg 62%
    23:00 -1°C° 0 mm 2 mps 759 mmHg 63%
    Show more